Location: Miramichi City (Newcastle)
(46.9830°N, 65.5670°W)
Time: 08:45:13
(UTC-03:00)

Iridium 12 - Visible Passes

Search period start: 25 March 2017 00:00
Search period end: 04 April 2017 00:00
Orbit: 776 x 779 km, 86.4° (Epoch: 23 March)

Date Brightness Start Highest point End Pass type
(mag) Time Alt. Az. Time Alt. Az. Time Alt. Az.
25 Mar 8.2 01:26:30 10° NNE 01:27:33 15° NNE 01:27:33 15° NNE visible
25 Mar 7.8 03:06:48 10° NNW 03:08:01 17° NNW 03:08:01 17° NNW visible
26 Mar 8.3 00:53:54 10° NNE 00:54:08 11° NE 00:54:08 11° NE visible
26 Mar 7.8 02:33:04 10° N 02:34:37 20° N 02:34:37 20° N visible
27 Mar 7.8 01:59:34 10° N 02:01:13 20° N 02:01:13 20° N visible
27 Mar 8.0 03:41:24 10° NW 03:41:41 11° NW 03:41:41 11° NW visible
28 Mar 7.9 01:26:18 10° NNE 01:27:48 18° NNE 01:27:48 18° NNE visible
28 Mar 7.8 03:07:08 10° NNW 03:08:17 16° NNW 03:08:17 16° NNW visible
29 Mar 8.1 00:53:20 10° NNE 00:54:25 14° NNE 00:54:25 14° NNE visible
29 Mar 7.7 02:33:15 10° NNW 02:34:53 20° NNW 02:34:53 20° NNW visible
30 Mar 7.7 01:59:37 10° N 02:01:29 23° N 02:01:29 23° N visible
31 Mar 7.7 01:26:12 10° N 01:28:06 22° NNE 01:28:06 22° NNE visible
31 Mar 7.9 03:07:36 10° NNW 03:08:34 14° NW 03:08:34 14° NW visible
01 Apr 7.8 00:53:02 10° NNE 00:54:43 18° NNE 00:54:43 18° NNE visible
01 Apr 7.7 02:33:31 10° NNW 02:35:11 19° NNW 02:35:11 19° NNW visible
02 Apr 8.0 00:20:17 10° NNE 00:21:20 13° NE 00:21:20 13° NE visible
02 Apr 7.5 01:59:45 10° N 02:01:48 24° NNW 02:01:48 24° NNW visible
03 Apr 7.5 01:26:12 10° N 01:28:26 26° N 01:28:26 26° N visible
03 Apr 8.0 03:08:17 10° NW 03:08:54 12° NW 03:08:54 12° NW visible
